GFSNE_850_temp_021.txt.gz
Temp
19 18 17 17 17 17 17 17 17 17 17 17 17 17 17 16 16 16 15 15 15 15 14 14 14 14 14 14 13 13 13 13 13 13 14 14 14 14
20 19 19 18 17 16 17 17 17 17 17 17 16 16 16 16 16 16 16 15 15 15 14 14 14 14 14 14 14 13 13 13 14 14 14 13 13 14
20 20 19 18 17 16 16 16 16 16 16 17 17 16 16 16 16 15 15 15 15 14 14 14 14 14 14 14 13 14 14 14 14 14 14 14 13 13
20 20 20 18 18 17 16 16 16 16 16 16 16 16 16 16 16 15 15 15 15 14 14 14 14 13 13 13 13 13 13 13 13 14 14 14 14 14
20 20 20 19 18 17 17 16 16 16 16 15 15 16 16 15 16 15 15 15 14 14 14 13 13 13 13 13 13 13 13 12 12 13 13 14 14 14
19 19 19 19 19 18 16 16 16 15 15 15 15 15 15 15 15 15 14 14 14 14 13 13 13 13 13 12 12 12 12 12 12 12 12 13 13 13
19 18 18 18 18 18 17 16 15 15 15 15 15 15 15 15 14 14 13 14 14 13 13 13 13 12 12 12 12 11 11 11 11 11 11 12 12 12
18 17 17 17 17 17 17 16 15 15 15 14 14 14 14 14 13 13 12 13 13 13 12 12 12 12 12 11 11 11 11 11 11 11 10 10 11 11
18 17 16 16 17 17 17 16 15 15 14 13 14 14 14 13 12 13 12 12 12 12 12 11 12 11 12 11 11 11 11 11 10 10 10 10 10 10
18 18 16 16 16 16 16 15 15 14 14 14 13 14 13 13 12 12 12 12 12 12 11 10 11 12 11 11 11 11 10 10 10 10 10 10 10 10
18 18 16 16 16 15 15 15 15 14 14 13 14 14 13 13 12 12 12 11 11 11 11 11 11 11 11 11 10 10 9 9 9 9 10 10 10 10
17 17 16 16 15 15 15 15 14 14 14 14 13 13 13 12 12 12 11 11 10 10 11 10 10 10 9 9 9 9 9 9 9 9 9 10 10 9
17 16 16 15 15 14 14 14 14 14 14 13 13 13 12 12 12 11 10 10 10 10 10 9 9 9 9 9 9 9 9 9 9 9 9 9 9 9
16 16 15 14 14 14 14 14 13 13 13 13 13 12 13 12 11 10 10 10 10 10 9 9 9 9 9 9 9 9 9 9 9 8 9 9 9 9
15 14 14 14 14 14 14 14 13 13 13 13 13 13 12 12 11 11 10 10 9 9 9 9 9 9 9 9 9 9 9 9 8 8 8 8 8 8
14 14 14 14 14 14 14 14 14 13 13 13 13 12 11 11 11 10 10 9 9 9 8 9 9 9 9 9 9 9 9 8 8 8 8 7 7 7
15 14 14 14 14 14 14 14 14 13 13 13 12 11 11 11 10 9 9 9 8 8 8 8 9 9 9 9 9 9 8 7 7 7 7 6 7 7
14 14 14 14 14 14 14 13 13 13 13 13 12 11 11 10 9 9 8 8 8 8 8 8 9 9 9 9 9 8 8 7 7 6 6 5 6 6
14 14 14 14 14 14 13 13 13 13 12 12 11 11 10 9 9 9 8 8 8 8 8 8 9 8 8 8 8 8 6 6 6 6 5 5 5 5
15 15 14 13 13 14 13 13 12 12 11 11 10 10 9 9 8 8 8 7 7 8 8 8 8 8 8 8 7 7 6 6 5 5 5 5 4 3
15 14 14 13 13 13 13 12 12 11 11 10 9 9 8 8 8 8 7 7 7 7 8 8 8 8 8 7 7 6 6 6 5 4 4 2 0 -0
14 14 14 13 13 12 12 12 11 10 10 9 9 8 8 8 8 7 7 7 7 7 8 8 8 8 7 7 6 6 5 5 5 5 5 2 -0 -1
14 14 13 13 12 12 12 11 11 10 10 9 9 8 8 8 7 7 7 7 7 7 7 8 8 7 7 6 6 5 5 4 4 5 6 3 2 1

GFSNE_850_temp_024.txt.gz
Temp
20 19 18 17 17 17 17 17 17 17 17 17 17 16 16 16 16 16 16 15 15 15 14 14 14 14 14 13 13 13 14 14 14 13 13 13 13 13
20 20 19 19 18 17 17 17 17 17 17 17 17 16 16 16 16 16 15 15 15 15 14 14 14 14 14 14 14 14 14 14 14 14 14 14 14 14
20 20 20 19 19 18 17 16 16 16 16 16 16 16 16 16 15 15 15 15 15 15 14 14 14 14 14 14 14 13 13 14 14 14 14 14 14 14
20 20 20 19 19 19 18 16 16 16 16 16 16 16 16 16 15 15 15 15 15 15 14 14 14 13 13 14 14 14 13 13 13 13 13 13 13 14
19 19 19 19 19 18 18 17 16 16 15 15 15 15 15 15 15 15 15 14 14 14 14 14 13 13 13 13 13 13 13 13 12 12 12 12 13 13
19 18 18 18 18 17 17 17 16 16 15 15 15 15 15 15 15 15 15 15 14 14 14 13 13 13 12 12 12 12 12 12 12 12 12 12 12 12
19 19 18 18 17 18 17 16 16 15 15 15 15 15 15 14 14 14 15 14 15 14 14 13 13 13 13 12 12 11 11 11 11 11 11 11 11 11
19 19 18 17 16 17 16 16 15 15 15 15 15 14 14 14 14 14 14 14 13 14 13 13 12 12 12 12 12 12 11 11 11 11 11 11 11 10
19 19 18 17 17 17 16 16 16 15 15 15 14 14 14 14 14 14 13 13 13 13 12 12 12 12 12 12 12 12 11 11 10 10 10 10 10 10
19 19 18 18 17 16 16 16 15 15 15 15 14 14 14 13 14 13 13 13 12 12 11 11 11 11 11 11 11 11 11 11 10 10 9 9 9 9
19 19 18 17 17 16 15 15 15 15 15 14 14 14 13 13 13 13 13 12 11 11 11 10 11 10 10 11 11 10 9 9 9 9 9 9 9 9
19 18 17 17 16 16 15 15 15 15 14 14 14 13 13 13 13 13 12 11 10 10 10 10 10 9 9 9 9 9 9 9 9 9 9 9 9 9
19 18 18 17 16 16 15 15 15 14 13 13 13 13 13 13 13 12 11 10 10 10 10 9 9 9 9 8 9 9 9 9 9 9 8 8 9 9
18 17 17 16 16 16 15 15 15 13 13 13 13 13 13 13 12 12 11 10 10 10 9 9 8 8 8 8 9 9 9 9 9 9 8 8 8 8
17 16 16 16 15 15 15 14 14 13 13 13 13 13 13 12 12 11 10 10 10 9 9 9 8 8 8 9 9 9 9 9 9 8 8 8 8 8
16 15 15 15 15 15 15 14 14 14 13 13 13 13 13 12 11 11 10 10 9 9 9 8 8 8 8 9 9 9 9 8 8 7 7 7 7 7
15 15 14 14 15 15 14 14 14 13 13 13 13 13 12 11 11 10 10 9 9 8 8 8 8 8 9 9 9 8 8 8 7 7 6 6 6 7
14 16 16 15 15 14 14 14 13 13 13 13 12 12 12 11 10 10 9 9 8 8 8 8 8 8 8 8 8 8 8 7 6 6 6 5 6 7
15 16 15 14 14 14 14 13 13 13 13 12 12 12 11 10 10 9 9 8 8 8 7 8 8 8 8 8 8 7 6 6 5 5 5 5 4 6
17 16 15 14 13 14 13 13 13 13 12 12 11 11 10 9 9 8 8 8 7 7 7 7 8 8 8 7 7 7 6 5 5 5 4 5 5 6
15 14 14 14 14 13 13 13 12 12 12 11 11 10 9 8 8 8 8 7 7 7 7 7 7 8 7 7 7 6 6 5 5 4 4 4 4 2
15 15 15 14 13 13 13 12 12 11 11 10 10 9 9 9 8 8 7 7 7 7 7 7 7 7 7 7 6 6 5 6 6 5 5 3 1 0
15 15 14 14 13 13 12 12 11 11 10 9 9 9 8 8 8 7 7 7 7 7 7 7 7 7 7 6 6 5 5 5 5 6 6 5 4 3

GFSNE_850_temp_030.txt.gz
Temp
21 21 20 19 18 18 18 19 19 21 20 19 18 18 17 17 16 17 17 16 16 16 16 15 15 15 15 15 15 15 14 14 14 14 14 14 14 14
19 20 21 18 18 18 18 18 18 19 20 20 18 18 17 17 16 16 16 16 16 16 16 15 15 15 15 15 14 14 14 14 14 14 14 14 14 14
20 19 21 20 18 18 18 18 18 18 19 19 18 17 17 17 16 16 15 15 16 15 15 15 15 15 15 15 14 14 14 14 14 14 14 14 14 14
20 20 20 20 20 19 17 18 18 18 18 18 18 17 16 16 16 16 16 16 16 16 15 15 15 15 15 14 14 14 14 14 14 14 14 14 13 13
20 20 20 20 20 18 20 18 17 16 17 17 18 17 17 16 15 15 14 15 15 15 15 15 15 15 14 14 14 14 14 14 14 13 13 13 13 13
21 20 20 20 20 20 20 20 18 17 16 16 17 17 17 16 15 16 16 15 15 15 15 14 14 14 14 14 14 13 13 13 12 12 12 12 12 12
21 21 20 20 20 20 19 19 17 17 17 17 17 17 17 17 16 16 15 15 16 15 14 14 13 13 13 13 13 13 12 12 12 11 11 11 11 11
21 21 20 20 20 19 19 18 18 17 16 17 17 18 17 16 15 15 15 16 16 15 14 14 14 14 14 14 14 13 12 12 12 11 11 11 11 11
22 20 19 19 20 20 19 18 17 17 17 15 16 16 17 15 15 14 14 14 14 15 13 14 15 15 14 14 13 12 12 12 11 11 11 11 10 10
21 21 21 20 19 20 20 19 18 17 17 16 16 15 15 14 15 14 13 13 13 14 13 13 14 14 14 13 12 12 11 11 11 11 11 10 10 9
21 21 20 20 19 20 19 18 18 18 17 17 15 15 15 15 14 13 14 13 14 15 14 13 13 13 13 12 12 11 11 10 10 10 10 10 10 9
19 20 21 21 20 20 19 18 18 17 16 16 15 15 15 15 14 14 13 14 15 15 14 13 13 13 13 13 12 12 11 10 10 10 10 9 9 9
20 19 18 20 20 20 19 18 18 17 16 15 15 15 14 14 14 13 13 13 14 14 13 12 12 12 12 12 12 12 11 11 11 11 10 10 10 9
21 21 19 20 22 20 19 19 17 16 16 15 15 14 14 13 13 12 13 13 12 13 11 12 11 11 11 11 12 12 11 11 11 11 10 10 9 9
21 20 19 21 21 19 18 17 17 15 15 15 15 14 14 14 14 12 13 13 13 12 11 11 10 10 10 11 11 11 11 11 11 11 10 10 10 9
17 18 17 18 17 17 17 16 15 15 15 15 15 14 14 13 12 12 12 11 12 12 11 10 10 9 9 10 10 10 11 11 10 10 10 9 9 9
17 17 17 17 17 17 16 15 14 14 15 14 14 14 14 13 13 12 12 12 12 12 12 11 10 9 9 9 9 10 10 10 10 10 9 9 9 9
17 16 17 16 17 17 15 14 14 13 13 14 14 13 13 13 13 12 12 12 12 12 12 11 11 10 10 11 10 10 10 10 9 9 8 9 9 9
16 17 18 17 17 16 15 14 13 13 13 13 13 13 13 13 12 12 12 11 12 11 11 11 10 10 10 11 11 10 9 9 8 8 8 8 8 7
17 17 17 18 16 15 14 14 13 12 13 13 13 13 13 13 12 12 12 12 11 11 11 10 10 10 10 10 10 9 8 8 8 7 7 7 7 6
16 17 17 16 14 14 15 13 13 12 13 12 13 13 13 12 12 12 12 11 11 11 10 10 11 10 9 8 9 10 10 9 8 6 6 6 6 6
16 14 14 14 14 14 13 13 12 13 12 12 13 12 12 12 12 12 12 11 10 10 10 10 10 9 9 9 10 10 9 9 7 7 7 6 5 4
14 13 13 15 13 13 13 13 13 13 12 12 12 12 12 12 12 12 11 11 11 11 10 10 10 10 9 9 9 9 9 9 8 8 7 6 5 4

GFSNE_850_temp_033.txt.gz
Temp
19 21 21 20 20 20 20 20 21 22 22 20 20 19 19 18 17 17 16 16 16 16 16 16 16 16 16 15 15 15 15 14 14 14 14 14 14 14
19 19 21 19 20 20 20 20 20 20 21 21 20 20 18 19 18 17 16 16 16 17 16 16 16 16 16 16 15 15 14 14 14 14 14 14 14 13
19 19 21 21 20 20 20 20 20 20 20 21 20 19 18 18 17 17 16 16 16 16 16 16 16 16 15 15 15 15 15 14 14 14 14 14 14 14
19 20 20 21 21 20 19 19 19 19 19 19 20 19 18 17 17 16 16 17 17 17 16 16 15 15 15 15 15 14 14 14 14 14 14 14 14 13
20 20 21 20 21 20 20 19 19 18 18 18 19 19 18 17 16 16 16 15 16 16 16 16 15 15 15 15 14 15 14 14 14 13 13 13 13 13
20 20 20 20 21 22 20 20 19 19 18 18 18 19 19 18 17 17 17 16 16 17 16 16 16 15 15 14 14 14 14 13 13 13 12 12 12 12
20 20 20 19 20 21 21 20 19 19 18 19 18 18 19 19 18 17 17 17 16 16 16 16 16 15 14 15 15 14 14 13 12 12 12 12 12 12
20 20 21 20 19 20 21 20 19 19 19 18 19 19 19 18 18 17 17 16 16 16 16 15 15 15 16 15 15 14 13 13 12 12 12 11 11 11
21 20 20 20 20 19 21 21 19 19 19 19 18 18 18 17 17 16 16 16 15 15 15 15 15 15 16 16 15 14 13 13 12 11 11 11 11 11
21 20 19 20 20 20 20 21 21 19 19 19 18 18 18 17 16 16 16 15 14 15 14 14 15 15 15 15 14 13 13 12 12 11 11 11 11 10
22 20 19 19 20 20 20 20 21 20 19 19 18 17 17 16 16 15 15 14 14 14 15 14 15 15 15 14 14 14 13 12 11 11 11 11 10 10
22 21 20 19 20 20 20 19 19 21 19 19 19 17 16 16 16 16 15 14 14 15 16 15 15 14 14 14 14 13 13 13 12 12 11 11 11 10
21 20 21 21 20 20 20 20 20 20 19 18 17 15 15 15 15 16 15 15 15 15 15 15 14 14 14 14 14 13 13 13 12 12 11 11 11 11
22 21 21 20 20 19 18 18 18 18 17 17 16 15 15 14 14 14 15 14 13 14 14 15 13 13 13 13 13 13 13 12 12 12 12 11 11 11
24 22 22 21 21 19 18 17 17 17 17 16 16 15 15 15 15 14 13 14 14 14 14 14 13 11 11 11 12 12 12 12 12 12 11 11 11 10
19 21 22 22 21 20 18 17 17 17 17 17 16 16 15 15 14 14 13 14 14 12 13 13 12 12 11 11 11 11 11 11 11 11 11 10 10 10
19 18 18 20 20 19 17 18 16 16 16 17 17 17 14 14 14 14 13 13 13 13 13 13 12 11 10 10 10 11 11 11 11 11 10 10 9 10
18 18 18 17 18 18 18 17 16 18 16 16 16 15 14 14 14 13 13 13 14 14 13 13 12 11 11 12 12 11 11 11 11 10 9 10 9 9
18 18 18 17 17 18 16 16 17 17 15 16 16 15 14 14 14 13 13 13 13 13 13 13 12 12 12 12 12 11 11 10 10 10 9 9 8 8
18 18 18 17 17 17 16 16 15 15 15 15 15 14 13 14 13 13 14 13 13 13 13 12 12 12 11 12 11 10 11 10 9 9 9 8 8 7
18 18 16 16 15 15 15 14 15 15 14 14 14 14 14 14 14 14 14 14 13 13 13 12 12 12 11 10 10 11 11 11 10 9 8 8 7 7
17 17 15 15 15 16 14 14 14 14 13 13 13 14 14 14 14 14 14 14 13 12 12 12 12 11 10 10 11 11 11 11 10 10 9 8 8 7
15 15 15 15 15 14 14 14 14 13 13 13 14 14 14 14 14 14 14 14 13 12 12 12 12 11 11 11 11 11 10 11 11 10 10 9 8 7